Weather History for CWJU - December, 2012

Change the Weather History Date:

Friday, December 14, 2012

  Actual Average Record
Temperature  
Mean Temperature 39 °F -  
Max Temperature 42 °F - - ()
Min Temperature 36 °F - - ()
Degree Days  
Heating Degree Days 26    
Moisture  
Dew Point 38 °F    
Average Humidity 92    
Maximum Humidity 96    
Minimum Humidity 81    
Precipitation  
Precipitation 0.00 in - - ()
Sea Level Pressure  
Sea Level Pressure 29.39 in    
Wind  
Wind Speed 11 mph ()    
Max Wind Speed 22 mph    
Max Gust Speed 28 mph    
T = Trace of Precipitation, MM = Missing Value Source: Averaged Metar Reports

Daily Weather History Graph

Daily Weather History Graph

Search for Another Location

Airport or City:

Trip Planner

Search our weather history database for the weather conditions in past years. The results will help you decide how hot, cold, wet, or windy it might be!

Date:

Astronomy

Dec. 14, 2012 Rise Set
Actual Time 9:06 AM PST 4:28 PM PST
Civil Twilight 8:22 AM PST 5:12 PM PST
Nautical Twilight 7:35 AM PST 5:58 PM PST
Astronomical Twilight 6:52 AM PST 6:42 PM PST
Moon 10:07 AM PST (12/14) 6:41 PM PST (12/14)
Length of Visible Light 8h 50m
Length of Day
7h 22m
Waxing Crescent, 3% of the Moon is Illuminated
Dec 14
Waxing Crescent
Dec 19
First Quarter
Dec 28
Full
Jan 4
Last Quarter
Jan 11
New

Hourly Weather History & Observations

Time (PST) Temp. Windchill Dew Point Humidity Pressure Visibility Wind Dir Wind Speed Gust Speed Precip Events Conditions
12:00 AM 42.4 °F 33.3 °F 36.9 °F 81% 29.73 in - WNW 21.9 mph - N/A   Unknown
1:00 AM 39.6 °F 33.0 °F 36.9 °F 90% 29.74 in - West 10.4 mph - N/A   Unknown
2:00 AM 40.8 °F 31.7 °F 38.7 °F 92% 29.72 in - West 19.6 mph 25.3 mph N/A   Unknown
3:00 AM 39.7 °F 34.3 °F 37.0 °F 90% 29.71 in - West 8.1 mph - N/A   Unknown
4:00 AM 41 °F - 38 °F 85% 29.69 in - WSW 11.5 mph - -  
4:00 AM 41.2 °F 34.5 °F 37.9 °F 88% 29.69 in - WSW 11.5 mph 19.6 mph N/A   Unknown
5:00 AM 41.4 °F 34.3 °F 38.5 °F 89% 29.67 in - WSW 12.7 mph 21.9 mph N/A   Unknown
6:00 AM 40.1 °F 32.7 °F 37.9 °F 92% 29.65 in - WSW 12.7 mph 23.0 mph N/A   Unknown
7:00 AM 41.0 °F 32.8 °F 39.6 °F 95% 29.62 in - WSW 16.1 mph 27.6 mph N/A   Unknown
8:00 AM 41.0 °F 33.5 °F 39.6 °F 95% 29.59 in - WSW 13.8 mph 26.5 mph N/A   Unknown
9:00 AM 40.5 °F 35.1 °F 39.0 °F 95% 29.57 in - SW 8.1 mph - N/A   Unknown
10:00 AM 41 °F - 40 °F 94% 29.54 in - SW 11.5 mph - -  
10:00 AM 41.4 °F 34.7 °F 39.9 °F 95% 29.54 in - SW 11.5 mph 27.6 mph N/A   Unknown
11:00 AM 40.8 °F 36.9 °F 39.0 °F 93% 29.49 in - South 5.8 mph - N/A   Unknown
12:00 PM 41.4 °F 35.7 °F 38.5 °F 89% 29.44 in - SSW 9.2 mph 21.9 mph N/A   Unknown
1:00 PM 40.6 °F 34.8 °F 37.8 °F 89% 29.39 in - South 9.2 mph 17.3 mph N/A   Unknown
2:00 PM 39.9 °F 33.4 °F 37.8 °F 92% 29.34 in - SSE 10.4 mph - N/A   Unknown
3:00 PM 39.9 °F 35.1 °F 37.9 °F 93% 29.28 in - South 6.9 mph 18.4 mph N/A   Unknown
4:00 PM 39 °F - 37 °F 90% 29.22 in - SSE 8.1 mph - -  
4:00 PM 38.8 °F 33.2 °F 37.0 °F 93% 29.22 in - SSE 8.1 mph - N/A   Unknown
5:00 PM 37.9 °F 30.9 °F 36.3 °F 94% 29.14 in - SE 10.4 mph 20.7 mph N/A   Unknown
6:00 PM 37.0 °F 29.8 °F 35.6 °F 95% 29.09 in - SSE 10.4 mph 23.0 mph N/A   Unknown
7:00 PM 36.5 °F 28.2 °F 35.2 °F 95% 29.03 in - SSE 12.7 mph 19.6 mph N/A   Unknown
8:00 PM 36.9 °F 28.7 °F 35.6 °F 95% 28.99 in - SSE 12.7 mph 23.0 mph N/A   Unknown
9:00 PM 37.2 °F 28.3 °F 36.0 °F 95% 28.97 in - SSE 15.0 mph 26.5 mph N/A   Unknown
10:00 PM 37 °F - 36 °F 92% 28.96 in - South 12.7 mph - -  
10:00 PM 36.9 °F 28.7 °F 35.6 °F 95% 28.96 in - South 12.7 mph 25.3 mph N/A   Unknown
11:00 PM 41.0 °F 32.8 °F 39.9 °F 96% 28.97 in - West 16.1 mph 26.5 mph N/A   Unknown